N0RUX-13 Weather Reports


Display with metric or nautical units.
time (UTC)temp
F
wind
direction
speed
MPH
gust
MPH
rain 1hr
in
rain 24hr
in
rain mn
in
humidity
%
barometer
mb
20230127145648 32 345 0.0 1.0 0.00 0.00 0.00 50 1015.3
20230127144649 31 191 0.0 0.0 0.00 0.00 0.00 51 1015.2
20230127143648 31 135 0.0 0.0 0.00 0.00 0.00 51 1015.4
20230127142648 32 16 0.0 4.0 0.00 0.00 0.00 51 1015.6
20230127141647 31 111 0.0 4.0 0.00 0.00 0.00 50 1015.9
20230127140648 33 41 0.0 1.0 0.00 0.00 0.00 47 1015.9
20230127135647 32 37 1.0 3.0 0.00 0.00 0.00 49 1016.2
20230127134647 32 25 0.0 0.0 0.00 0.00 0.00 47 1016.4
20230127133647 32 34 0.0 2.0 0.00 0.00 0.00 47 1016.4
20230127132647 33 14 2.0 1.0 0.00 0.00 0.00 45 1016.5
20230127131647 33 255 1.0 1.0 0.00 0.00 0.00 45 1016.6
20230127130648 34 247 1.0 7.0 0.00 0.00 0.00 43 1016.6
20230127125647 36 281 0.0 2.0 0.00 0.00 0.00 40 1016.6
20230127124647 37 297 0.0 6.0 0.00 0.00 0.00 41 1016.7
20230127123648 37 219 3.0 7.0 0.00 0.00 0.00 41 1016.9
20230127122647 35 238 4.0 4.0 0.00 0.00 0.00 41 1017.1
20230127121647 33 221 1.0 3.0 0.00 0.00 0.00 43 1017.5
20230127120648 32 286 0.0 4.0 0.00 0.00 0.00 45 1017.4
20230127115647 31 8 1.0 1.0 0.00 0.00 0.00 47 1017.6
20230127114647 31 343 0.0 3.0 0.00 0.00 0.00 47 1017.6
20230127113647 33 166 1.0 2.0 0.00 0.00 0.00 44 1017.7
20230127112647 35 319 0.0 2.0 0.00 0.00 0.00 40 1017.5
20230127111647 36 357 1.0 4.0 0.00 0.00 0.00 39 1017.4
20230127110647 36 156 0.0 5.0 0.00 0.00 0.00 39 1017.6
20230127105647 36 359 1.0 0.0 0.00 0.00 0.00 38 1017.8
20230127104647 36 347 0.0 3.0 0.00 0.00 0.00 38 1017.9
20230127103647 36 72 1.0 2.0 0.00 0.00 0.00 37 1018.1
20230127102648 37 192 0.0 4.0 0.00 0.00 0.00 36 1018.0
20230127100647 38 319 2.0 9.0 0.00 0.00 0.00 37 1018.2
20230127095648 38 307 6.0 16.0 0.00 0.00 0.00 36 1017.9
20230127094647 37 18 5.0 12.0 0.00 0.00 0.00 37 1017.8
20230127092647 36 302 3.0 5.0 0.00 0.00 0.00 37 1018.0
20230127091647 37 323 7.0 2.0 0.00 0.00 0.00 35 1018.2
20230127090647 38 355 2.0 11.0 0.00 0.00 0.00 34 1018.3
20230127085647 39 277 2.0 10.0 0.00 0.00 0.00 33 1018.1
20230127084647 39 305 3.0 13.0 0.00 0.00 0.00 32 1018.2
20230127083647 39 272 2.0 14.0 0.00 0.00 0.00 32 1018.0
20230127082647 38 245 4.0 7.0 0.00 0.00 0.00 33 1017.7
20230127081647 37 307 4.0 6.0 0.00 0.00 0.00 35 1018.1
20230127080647 39 276 2.0 13.0 0.00 0.00 0.00 32 1018.4
20230127075647 38 205 4.0 14.0 0.00 0.00 0.00 33 1018.5
20230127074647 37 315 3.0 10.0 0.00 0.00 0.00 34 1018.8
20230127073647 37 284 3.0 5.0 0.00 0.00 0.00 35 1018.8
20230127072647 37 298 2.0 7.0 0.00 0.00 0.00 34 1019.2
20230127071646 37 279 2.0 5.0 0.00 0.00 0.00 35 1019.4
20230127070646 37 269 1.0 9.0 0.00 0.00 0.00 35 1019.5
20230127065646 37 164 3.0 4.0 0.00 0.00 0.00 34 1019.5
20230127064647 37 294 0.0 3.0 0.00 0.00 0.00 35 1019.9
20230127062646 37 283 6.0 7.0 0.00 0.00 0.00 36 1020.0
20230127061646 38 269 2.0 12.0 0.00 0.00 0.00 33 1019.9
20230127055646 37 260 2.0 12.0 0.00 0.00 0.00 35 1020.1
20230127054646 37 246 3.0 9.0 0.00 0.00 0.00 35 1020.6
20230127053646 37 256 5.0 9.0 0.00 0.00 0.00 36 1020.6
20230127052646 37 245 2.0 4.0 0.00 0.00 0.00 36 1020.7
20230127051646 37 259 2.0 9.0 0.00 0.00 0.00 36 1020.8
20230127050646 37 278 4.0 12.0 0.00 0.00 0.00 36 1020.9
20230127045646 37 329 8.0 9.0 0.00 0.00 0.00 35 1021.1
20230127044646 37 313 3.0 7.0 0.00 0.00 0.00 35 1021.3
20230127043646 37 288 4.0 16.0 0.00 0.00 0.00 36 1021.5
20230127042646 37 257 1.0 5.0 0.00 0.00 0.00 36 1021.5
20230127041646 36 325 4.0 5.0 0.00 0.00 0.00 39 1021.7
20230127040646 37 265 2.0 6.0 0.00 0.00 0.00 37 1021.8
20230127034646 37 261 8.0 11.0 0.00 0.00 0.00 37 1021.7
20230127033646 36 301 2.0 11.0 0.00 0.00 0.00 36 1021.9
20230127032646 36 216 8.0 12.0 0.00 0.00 0.00 36 1021.8
20230127031646 36 222 4.0 12.0 0.00 0.00 0.00 37 1021.9
20230127030646 36 221 9.0 6.0 0.00 0.00 0.00 37 1022.0
20230127025646 36 260 1.0 9.0 0.00 0.00 0.00 37 1021.9
20230127024651 36 238 3.0 8.0 0.00 0.00 0.00 38 1021.9
20230127023648 36 248 0.0 3.0 0.00 0.00 0.00 38 1021.9
20230127022648 36 300 1.0 4.0 0.00 0.00 0.00 37 1021.7
20230127021648 36 283 1.0 9.0 0.00 0.00 0.00 37 1021.5
20230127020648 36 278 0.0 9.0 0.00 0.00 0.00 35 1021.6
20230127015648 36 221 8.0 9.0 0.00 0.00 0.00 36 1021.3
20230127014648 35 259 4.0 2.0 0.00 0.00 0.00 38 1021.7
20230127013648 36 18 1.0 3.0 0.00 0.00 0.00 39 1021.7
20230127012648 36 325 1.0 11.0 0.00 0.00 0.00 38 1021.3
20230127011648 36 307 4.0 9.0 0.00 0.00 0.00 37 1021.4
20230127010648 37 262 1.0 10.0 0.00 0.00 0.00 36 1021.4
20230127005648 37 262 4.0 7.0 0.00 0.00 0.00 36 1021.3
20230127004648 37 245 2.0 8.0 0.00 0.00 0.00 36 1021.3
20230127003648 38 284 5.0 15.0 0.00 0.00 0.00 35 1021.0
20230127002648 38 277 6.0 8.0 0.00 0.00 0.00 36 1021.0
20230127001648 38 273 1.0 8.0 0.00 0.00 0.00 36 1020.8
20230127000648 38 300 0.0 3.0 0.00 0.00 0.00 36 1020.6
20230126235647 38 276 0.0 2.0 0.00 0.00 0.00 34 1020.6
20230126234647 38 257 2.0 1.0 0.00 0.00 0.00 34 1020.7
20230126233647 38 248 0.0 3.0 0.00 0.00 0.00 34 1020.6
20230126232647 38 252 3.0 3.0 0.00 0.00 0.00 32 1020.8
20230126231647 38 266 0.0 7.0 0.00 0.00 0.00 35 1021.0
20230126230647 38 262 3.0 11.0 0.00 0.00 0.00 33 1020.9
20230126224647 39 259 4.0 6.0 0.00 0.00 0.00 32 1021.0
20230126223647 39 284 2.0 6.0 0.00 0.00 0.00 30 1021.0
20230126222647 39 305 3.0 6.0 0.00 0.00 0.00 29 1020.8
20230126221647 40 252 1.0 8.0 0.00 0.00 0.00 30 1020.9
20230126220647 40 255 1.0 12.0 0.00 0.00 0.00 28 1020.5
20230126215647 41 248 7.0 8.0 0.00 0.00 0.00 28 1020.8
20230126214647 41 310 3.0 7.0 0.00 0.00 0.00 27 1020.9
20230126213647 40 262 3.0 9.0 0.00 0.00 0.00 27 1021.0
20230126212647 41 270 2.0 9.0 0.00 0.00 0.00 28 1021.0
20230126211647 41 293 1.0 10.0 0.00 0.00 0.00 27 1021.0
20230126210647 40 177 2.0 9.0 0.00 0.00 0.00 25 1021.1
20230126205647 40 280 3.0 9.0 0.00 0.00 0.00 27 1021.3
20230126204647 40 299 6.0 14.0 0.00 0.00 0.00 28 1021.4
20230126202646 40 262 8.0 15.0 0.00 0.00 0.00 26 1021.7
20230126201646 39 233 4.0 12.0 0.00 0.00 0.00 26 1021.9
20230126200647 40 241 7.0 14.0 0.00 0.00 0.00 28 1022.3
20230126195646 40 198 3.0 9.0 0.00 0.00 0.00 24 1022.4
20230126194646 40 252 5.0 14.0 0.00 0.00 0.00 24 1022.8
20230126192646 40 183 6.0 4.0 0.00 0.00 0.00 24 1023.4
20230126191646 40 266 1.0 9.0 0.00 0.00 0.00 24 1023.9
20230126190646 39 245 4.0 15.0 0.00 0.00 0.00 25 1024.2
20230126185646 39 271 4.0 11.0 0.00 0.00 0.00 24 1024.7
20230126184646 40 212 3.0 4.0 0.00 0.00 0.00 21 1025.0
20230126183646 40 241 2.0 4.0 0.00 0.00 0.00 22 1025.3
20230126182646 40 252 1.0 4.0 0.00 0.00 0.00 25 1025.6
20230126181646 39 186 2.0 6.0 0.00 0.00 0.00 28 1025.8
20230126180646 39 160 1.0 5.0 0.00 0.00 0.00 27 1026.1
20230126175646 38 174 2.0 7.0 0.00 0.00 0.00 26 1026.3
20230126174646 38 251 5.0 4.0 0.00 0.00 0.00 28 1026.4
20230126173646 37 160 3.0 8.0 0.00 0.00 0.00 31 1026.8
20230126171646 36 196 4.0 5.0 0.00 0.00 0.00 29 1027.6
20230126170646 35 166 2.0 8.0 0.00 0.00 0.00 32 1027.8
20230126165646 35 160 5.0 2.0 0.00 0.00 0.00 32 1028.1
20230126164646 32 139 0.0 3.0 0.00 0.00 0.00 36 1028.3
20230126163646 31 137 2.0 2.0 0.00 0.00 0.00 36 1028.5
20230126162646 32 135 1.0 3.0 0.00 0.00 0.00 36 1028.8
20230126161646 33 139 1.0 2.0 0.00 0.00 0.00 35 1028.9
20230126160646 32 224 0.0 3.0 0.00 0.00 0.00 36 1029.0
20230126155646 32 120 0.0 0.0 0.00 0.00 0.00 36 1029.0
20230126154646 30 139 0.0 0.0 0.00 0.00 0.00 38 1029.2
20230126153646 30 125 0.0 1.0 0.00 0.00 0.00 38 1029.5
20230126152646 28 125 0.0 2.0 0.00 0.00 0.00 38 1029.5
20230126151646 26 276 0.0 1.0 0.00 0.00 0.00 39 1029.9
20230126150646 25 311 0.0 0.0 0.00 0.00 0.00 41 1029.8